Location: Goettingen
(51.5300°N, 9.9433°E)
Time: 19:50:36
(UTC+01:00)

ISS - Pass Details

Date: 20 January 2022
Orbit: 413 x 422 km, 51.6° (Epoch: 28 January)

Event Time Altitude Azimuth Distance (km) Brightness Sun altitude
Rises 19:48:53 0° 245° (WSW) 2,343 1.0 -27.5°
Reaches altitude 10° 19:50:59 10° 242° (WSW) 1,483 -0.3 -27.8°
Enters shadow 19:51:47 16° 239° (WSW) 1,161 -0.9 -28.0°
